Location: Bandys
(35.4750°N, 81.0830°W)
Time: 08:55:14
(UTC-05:00)

Daily predictions for brighter satellites

Satellite Brightness Start Highest point End
(mag) Time Altitude Azimuth Time Altitude Azimuth Time Altitude Azimuth
ATLAS 2AS CENTAUR R/B 3.8 17:26:58 10° SW 17:34:27 53° NW 17:42:23 10° NNE
Atlas Centaur 2 3.3 17:34:46 10° W 17:40:32 41° SSW 17:45:07 10° SE
Cosmos 1655 Rocket 4.2 17:34:45 10° N 17:41:11 90° ESE 17:47:35 10° S
Cosmos 1455 Rocket 3.1 17:36:49 10° N 17:41:12 63° E 17:45:30 10° SSE
DELTA 2 R/B (1) 3.9 17:39:40 10° WNW 17:45:08 56° N 17:50:37 10° E
Cosmos 158 Rocket 4.0 17:40:21 10° N 17:45:17 52° ENE 17:50:03 10° SE
Cosmos 1544 Rocket 3.5 17:41:16 10° N 17:45:37 78° E 17:49:56 10° S
Delta 2 Rocket 4.4 17:41:05 10° W 17:46:46 66° SSW 17:52:03 10° ESE
USA 215 3.4 17:41:00 10° ESE 17:47:17 53° NE 17:53:36 10° NW
USA 116 3.7 17:45:50 10° NNE 17:48:46 38° E 17:51:41 10° S
YAOGAN 1 3.3 17:45:13 10° SE 17:49:00 30° ENE 17:52:48 10° N
PSLV R/B 4.3 17:47:19 10° WNW 17:50:10 29° N 17:52:53 11° ENE
CSL-04 Debris 4.1 17:46:32 10° SSE 17:51:54 75° ENE 17:57:17 10° N
Meteor 2-4 Rocket 3.6 17:49:24 10° S 17:54:50 78° E 18:00:12 10° NNE
NOSS 3-4 (A) 3.6 17:49:57 10° SSW 17:56:01 60° ESE 18:02:15 10° NE
NOSS 3-4 (C) 3.6 17:50:03 10° SSW 17:56:07 60° ESE 18:02:21 10° NE
Cosmos 468 4.5 17:53:54 10° NNW 17:59:13 75° ENE 18:04:29 10° SSE
METEOR-M 4.4 17:56:26 10° SE 18:01:26 43° ENE 18:06:27 10° N
FENGYUN 3A 4.5 17:58:14 10° SE 18:02:39 27° ENE 18:07:04 10° NNE
ISS -3.2 18:00:29 10° NW 18:03:44 61° SW 18:06:57 10° SE
AQUARIUS 4.2 17:59:18 10° SSE 18:03:47 88° WSW 18:08:17 10° NNW
Cosmos 2369 4.0 17:58:20 10° SSW 18:03:58 69° WNW 18:09:41 10° NNE
Cosmos 2278 4.0 17:58:29 10° SSW 18:04:09 73° WNW 18:09:52 10° NNE
Cosmos 724 4.3 17:58:51 10° NNW 18:04:35 59° ENE 18:10:19 10° SE
RESURS DK-1 3.8 18:02:52 10° SSE 18:05:55 20° ESE 18:07:48 15° ENE
SJ 16-02 1.8 18:02:37 10° SSW 18:06:57 65° WNW 18:11:20 10° N
CSL-04 Rocket 4.1 18:01:49 10° S 18:07:12 70° WSW 18:12:42 10° NNW
COSMO-SKYMED 1 2.9 18:04:35 10° NNE 18:08:47 46° E 18:12:57 10° S
Meteor 1-28 Rocket 3.8 18:07:50 10° N 18:11:34 58° WNW 18:15:16 10° SSW
CENTAUR R/B 4.0 18:08:13 10° N 18:14:29 25° NE 18:19:24 15° E
Hubble Space Telescope 3.2 18:13:37 10° WSW 18:16:36 19° SSW 18:19:35 10° SSE
DELTA 2 R/B (2) 4.0 18:15:43 10° WSW 18:18:16 72° SSE 18:20:09 24° ENE
Cosmos 1697 Rocket 2.7 18:13:45 10° SSW 18:19:24 90° W 18:25:05 10° NNE
NOSS 2-2 (E) 4.0 18:16:09 10° S 18:19:40 34° ESE 18:21:38 22° ENE
Cosmos 1515 3.6 18:17:15 10° S 18:20:58 65° E 18:24:44 10° NNE
CZ-4 R/B 1.8 18:21:00 10° S 18:24:48 63° W 18:28:44 10° NNW
CZ-2C R/B 4.3 18:20:56 10° N 18:25:36 63° WNW 18:30:18 10° SSW
EO 1 Del DPAF 3.3 18:22:10 11° NNE 18:25:47 57° E 18:29:31 10° S
NOSS 2-2 (C) 4.0 18:23:04 10° S 18:26:36 34° ESE 18:28:01 26° ENE
Shenzhou-11 Module 4.0 18:25:06 10° S 18:27:02 16° SE 18:27:25 16° SE
SPOT 3 Rocket 3.8 18:22:42 10° SE 18:27:36 45° ENE 18:32:30 10° N
Cosmos 1025 Rocket 2.9 18:25:12 10° S 18:29:28 68° E 18:33:44 10° NNE
Ariane Rocket 4.1 18:25:06 10° S 18:29:56 46° W 18:34:47 10° NNW
Meteor 1-15 Rocket 4.2 18:25:11 10° N 18:31:08 72° E 18:36:58 10° SSE
MONITOR-E 4.0 18:31:57 10° SSE 18:34:56 63° ENE 18:37:58 10° N
Okean 1-7 Rocket 3.5 18:31:23 10° S 18:35:41 59° E 18:39:24 14° NNE
ERS-2 2.1 18:32:07 10° SSE 18:35:41 56° ENE 18:39:18 10° N
Cosmos 2082 4.1 18:31:19 10° NNW 18:36:52 65° WSW 18:42:25 10° S
Cosmos 2084 3.9 18:35:00 10° SW 18:39:09 56° WNW 18:41:44 20° NNE
Cosmos 494 Rocket 4.3 18:34:57 10° N 18:39:57 43° ENE 18:44:55 10° SE
Landsat 4 4.5 18:36:31 10° N 18:40:15 53° WNW 18:43:57 10° SSW
Thor Agena Rocket 4.4 18:40:38 28° E 18:41:22 29° E 18:45:55 10° SSE
Cosmos 2251 Rocket 4.2 18:37:52 10° N 18:42:22 30° ENE 18:42:22 30° ENE
Okean 2 3.6 18:42:34 10° SSW 18:46:39 70° W 18:50:44 10° N
Cosmos 2227 Rocket 3.7 18:42:30 10° NW 18:47:43 39° WSW 18:52:53 10° S
Cosmos 1269 Rocket 4.4 18:42:45 10° NNW 18:48:00 65° WSW 18:53:13 10° S
Cosmos 1184 Rocket 3.0 18:47:06 10° S 18:49:52 53° SE 18:49:52 53° SE
ALOS 2.1 18:48:07 10° SSE 18:52:47 86° ENE 18:57:28 10° N
DNEPR-1 R/B 4.4 18:51:33 10° NNW 18:56:44 49° ENE 18:59:46 28° ESE
Cosmos 1980 Rocket 2.4 18:55:15 10° SSW 19:00:53 70° WNW 19:05:03 19° NNE
Cosmos 1606 Rocket 3.8 19:02:50 47° SE 19:02:50 47° SE 19:06:09 10° SSE
Cosmos 1066 Rocket 4.0 18:58:43 10° S 19:04:15 78° E 19:07:39 24° NNE
SL-8 R/B 3.6 18:59:39 10° SW 19:04:27 77° SE 19:05:15 60° ENE
Cosmos 2297 Rocket 4.3 19:09:18 10° NW 19:13:58 27° WSW 19:18:37 10° SSW
NOSS 3-2 (C) 4.3 19:14:58 10° NW 19:22:42 72° WSW 19:30:58 10° SSE
Cosmos 1892 Rocket 3.7 19:20:59 10° SSW 19:25:27 72° W 19:25:32 71° WNW
Atlas Centaur 2 4.0 19:25:42 10° WSW 19:28:38 15° SSW 19:30:51 11° S
OAO 1 Rocket 4.4 19:23:45 10° W 19:29:05 73° SSW 19:29:12 72° S
Cosmos 2344 3.5 19:22:40 10° SSW 19:30:13 60° ESE 19:31:20 55° E
USA 215 4.5 19:24:19 10° SSE 19:30:19 39° SW 19:36:22 10° WNW
Lacrosse 5 rocket 2.7 19:27:00 10° SSW 19:29:24 34° SSW 19:29:24 34° SSW
DELTA 2 R/B (1) 3.4 19:26:17 10° WNW 19:31:48 86° NNW 19:31:48 86° NNW
Cosmos 2227 4.3 19:29:14 10° NNW 19:34:03 63° N 19:34:03 63° N
S3M 4.2 19:34:44 10° SSW 19:40:48 67° W 19:44:08 28° N
SL-16 R/B 2.4 19:37:53 10° SSW 19:42:32 62° SSW 19:42:32 62° SSW
RESURS DK-1 4.2 19:40:16 10° WSW 19:43:45 27° WNW 19:43:45 27° WNW
Cosmos 2322 Rocket 2.6 19:42:18 10° SSW 19:46:37 55° SSW 19:46:37 55° SSW
CENTAUR R/B 3.0 19:57:59 10° NNW 20:06:07 86° WSW 20:06:43 79° S
